Kaneohe MCBH, HI

3:19 AM HST on November 21, 2019 (GMT -1000)
Kaneohe Bay Marine Corps Air Facility

Weather History for PHNG - October, 2019

Change the Weather History Date:

Monday, October 14, 2019

  Actual Average Record
Temperature  
Mean Temperature 82 °F -  
Max Temperature 84 °F 81 °F 87 °F (2006)
Min Temperature 80 °F 72 °F 46 °F (2001)
Cooling Degree Days 17    
Growing Degree Days 32 (Base 50)    
Moisture  
Dew Point 70 °F    
Average Humidity 67    
Maximum Humidity 72    
Minimum Humidity 63    
Precipitation  
Precipitation 0.00 in - - ()
Sea Level Pressure  
Sea Level Pressure 29.95 in    
Wind  
Wind Speed 9 mph ()    
Max Wind Speed 16 mph    
Max Gust Speed 23 mph    
Visibility 10.0 miles    
Events      
Averages and records for this station are not official NWS values.
T = Trace of Precipitation, MM = Missing Value Source: Averaged Metar Reports

Daily Weather History Graph

Daily Weather History Graph

Search for Another Location

Airport or City:

Astronomy

Oct. 14, 2019 Rise Set
Actual Time 6:26 AM HST 6:07 PM HST
Civil Twilight 6:04 AM HST 6:29 PM HST
Nautical Twilight 5:38 AM HST 6:55 PM HST
Astronomical Twilight 5:12 AM HST 7:21 PM HST
Moon 7:05 PM HST (10/14) 7:10 AM HST (10/14)
Length of Visible Light 12h 25m
Length of Day
11h 40m
Full, 99% of the Moon is Illuminated
Oct 14
Full
Oct 21
Last Quarter
Oct 27
New
Nov 4
First Quarter
Nov 12
Full

Hourly Weather History & Observations

Time (HST) Temp. Heat Index Dew Point Humidity Pressure Visibility Wind Dir Wind Speed Gust Speed Precip Events Conditions
12:57 AM 80.1 °F 82.9 °F 69.1 °F 69% 29.93 in 10.0 mi East 9.2 mph 17.3 mph N/A   Partly Cloudy
1:57 AM 80.1 °F 82.9 °F 69.1 °F 69% 29.92 in 10.0 mi East 5.8 mph - N/A   Scattered Clouds
2:46 AM 81.0 °F 84.4 °F 70.0 °F 69% 29.93 in 10.0 mi East 10.4 mph - N/A   Overcast
2:57 AM 81.0 °F 84.4 °F 70.0 °F 69% 29.92 in 10.0 mi East 6.9 mph - N/A   Mostly Cloudy
3:57 AM 81.0 °F 84.1 °F 69.1 °F 67% 29.93 in 10.0 mi Variable 6.9 mph - N/A   Mostly Cloudy
4:57 AM 81.0 °F 83.8 °F 68.0 °F 65% 29.93 in 10.0 mi East 10.4 mph - N/A   Partly Cloudy
5:57 AM 80.1 °F 82.7 °F 68.0 °F 67% 29.94 in 10.0 mi East 6.9 mph - N/A   Partly Cloudy
6:57 AM 80.1 °F 83.2 °F 70.0 °F 71% 29.95 in 10.0 mi ENE 8.1 mph - N/A   Partly Cloudy
7:57 AM 82.0 °F 86.3 °F 71.1 °F 69% 29.97 in 10.0 mi ENE 9.2 mph - N/A   Partly Cloudy
8:57 AM 82.9 °F 87.5 °F 71.1 °F 67% 29.98 in 10.0 mi East 13.8 mph 20.7 mph 0.00 in   Mostly Cloudy
9:57 AM 84.0 °F 88.4 °F 70.0 °F 63% 29.98 in 10.0 mi East 11.5 mph 23.0 mph N/A   Scattered Clouds
10:57 AM 84.0 °F 88.4 °F 70.0 °F 63% 29.98 in 10.0 mi ENE 13.8 mph 21.9 mph N/A   Partly Cloudy
11:57 AM 84.0 °F 88.4 °F 70.0 °F 63% 29.96 in 10.0 mi ENE 13.8 mph - N/A   Mostly Cloudy
12:11 PM 84.9 °F 90.1 °F 71.1 °F 63% 29.97 in 10.0 mi ENE 9.2 mph 20.7 mph N/A   Scattered Clouds
12:57 PM 84.9 °F 90.7 °F 72.0 °F 65% 29.94 in 10.0 mi ENE 16.1 mph 21.9 mph N/A   Scattered Clouds
1:57 PM 84.0 °F 89.6 °F 72.0 °F 67% 29.92 in 10.0 mi ENE 11.5 mph - N/A   Partly Cloudy
2:57 PM 84.9 °F 90.1 °F 71.1 °F 63% 29.92 in 10.0 mi ENE 13.8 mph - N/A   Partly Cloudy
3:57 PM 82.9 °F 87.0 °F 70.0 °F 65% 29.93 in 10.0 mi ENE 12.7 mph 20.7 mph N/A   Partly Cloudy
4:19 PM 82.9 °F 87.5 °F 71.1 °F 67% 29.94 in 10.0 mi ENE 12.7 mph - N/A   Mostly Cloudy
4:39 PM 82.9 °F 87.0 °F 70.0 °F 65% 29.94 in 10.0 mi East 12.7 mph 19.6 mph N/A   Scattered Clouds
4:46 PM 82.9 °F 87.0 °F 70.0 °F 65% 29.94 in 10.0 mi East 10.4 mph 19.6 mph N/A   Mostly Cloudy
4:57 PM 82.0 °F 85.9 °F 70.0 °F 67% 29.93 in 10.0 mi East 10.4 mph - N/A   Mostly Cloudy
5:57 PM 82.0 °F 85.9 °F 70.0 °F 67% 29.95 in 10.0 mi East 11.5 mph 17.3 mph N/A   Mostly Cloudy
6:10 PM 81.0 °F 84.4 °F 70.0 °F 69% 29.96 in 10.0 mi East 9.2 mph - N/A   Mostly Cloudy
6:57 PM 81.0 °F 84.4 °F 70.0 °F 69% 29.96 in 10.0 mi East 9.2 mph - N/A   Partly Cloudy
7:57 PM 81.0 °F 84.1 °F 69.1 °F 67% 29.98 in 10.0 mi East 10.4 mph - N/A   Partly Cloudy
8:57 PM 81.0 °F 84.9 °F 71.1 °F 72% 30.00 in 10.0 mi East 6.9 mph - N/A   Partly Cloudy
9:57 PM 82.0 °F 85.9 °F 70.0 °F 67% 30.01 in 10.0 mi East 10.4 mph - N/A   Scattered Clouds
10:57 PM 81.0 °F 84.9 °F 71.1 °F 72% 30.01 in 10.0 mi ENE 10.4 mph - N/A   Partly Cloudy
11:57 PM - - - N/A% 30.01 in 10.0 mi East 8.1 mph - N/A   Scattered Clouds